Biloxi, MS

7:04 AM CDT on May 24, 2017 (GMT -0500)
Keesler Air Force Base

Weather History for KBIX - July, 2012

Change the Weather History Date:

Wednesday, July 25, 2012

  Actual Average Record
Temperature  
Mean Temperature 86 °F -  
Max Temperature 92 °F 89 °F 98 °F (1952)
Min Temperature 80 °F 75 °F 70 °F (1963)
Cooling Degree Days 20    
Growing Degree Days 36 (Base 50)    
Moisture  
Dew Point 68 °F    
Average Humidity 57    
Maximum Humidity 73    
Minimum Humidity 43    
Precipitation  
Precipitation 0.00 in - - ()
Sea Level Pressure  
Sea Level Pressure 30.01 in    
Wind  
Wind Speed 7 mph (West)    
Max Wind Speed 14 mph    
Max Gust Speed -    
Visibility 10 miles    
Events      
Averages and records for this station are not official NWS values.
T = Trace of Precipitation, MM = Missing Value Source: NWS Daily Summary

Daily Weather History Graph

Daily Weather History Graph

Search for Another Location

Airport or City:

Trip Planner

Search our weather history database for the weather conditions in past years. The results will help you decide how hot, cold, wet, or windy it might be!

Date:

Astronomy

Jul. 25, 2012 Rise Set
Actual Time 6:10 AM CDT 7:54 PM CDT
Civil Twilight 5:43 AM CDT 8:20 PM CDT
Nautical Twilight 5:11 AM CDT 8:52 PM CDT
Astronomical Twilight 4:38 AM CDT 9:25 PM CDT
Moon 12:39 PM CDT (7/25) 11:56 PM CDT (7/25)
Length of Visible Light 14h 36m
Length of Day
13h 44m
Waxing Crescent, 42% of the Moon is Illuminated
Jul 25
Waxing Crescent
Jul 26
First Quarter
Aug 1
Full
Aug 9
Last Quarter
Aug 17
New

Hourly Weather History & Observations

Time (CDT) Temp. Heat Index Dew Point Humidity Pressure Visibility Wind Dir Wind Speed Gust Speed Precip Events Conditions
12:55 AM 83.8 °F 88.1 °F 70.2 °F 63% 30.03 in 10.0 mi WSW 8.1 mph - N/A   Clear
1:55 AM 84.0 °F 88.7 °F 70.5 °F 64% 30.01 in 10.0 mi WSW 5.8 mph - N/A   Partly Cloudy
2:55 AM 82.6 °F 86.1 °F 69.4 °F 64% 30.02 in 10.0 mi West 5.8 mph - N/A   Clear
3:55 AM 81.5 °F 85.1 °F 70.2 °F 68% 30.02 in 10.0 mi Variable 3.5 mph - N/A   Clear
4:55 AM 80.6 °F 83.9 °F 70.2 °F 70% 30.02 in 10.0 mi Variable 3.5 mph - N/A   Clear
5:55 AM 80.2 °F 83.7 °F 70.9 °F 73% 30.02 in 10.0 mi Calm Calm - N/A   Clear
6:55 AM 80.1 °F 83.4 °F 70.5 °F 73% 30.03 in 10.0 mi NW 5.8 mph - N/A   Clear
7:55 AM 82.2 °F 86.0 °F 69.6 °F 66% 30.05 in 10.0 mi NW 5.8 mph - N/A   Clear
8:55 AM 84.2 °F 87.3 °F 68.2 °F 58% 30.06 in 10.0 mi NNW 10.4 mph - N/A   Clear
9:55 AM 87.4 °F 89.8 °F 66.4 °F 49% 30.06 in 10.0 mi NNW 9.2 mph - N/A   Clear
10:55 AM 89.6 °F 92.6 °F 66.7 °F 47% 30.05 in 10.0 mi North 6.9 mph - N/A   Clear
11:55 AM 90.3 °F 92.2 °F 64.8 °F 43% 30.05 in 10.0 mi WNW 4.6 mph - N/A   Clear
12:55 PM 90.3 °F 93.4 °F 67.1 °F 46% 30.04 in 10.0 mi SSW 11.5 mph - N/A   Partly Cloudy
1:55 PM 90.9 °F 94.0 °F 66.9 °F 45% 30.03 in 10.0 mi SSW 11.5 mph - N/A   Clear
3:55 PM 91.0 °F 95.2 °F 68.2 °F 47% 30.00 in 10.0 mi SW 13.8 mph - N/A   Clear
4:55 PM 90.9 °F 94.8 °F 68.2 °F 47% 29.99 in 10.0 mi SW 13.8 mph - N/A   Clear
5:55 PM 90.3 °F 92.2 °F 64.9 °F 43% 29.97 in 10.0 mi SW 11.5 mph - N/A   Clear
6:55 PM 86.0 °F 89.4 °F 68.4 °F 55% 29.99 in 10.0 mi SW 12.7 mph - N/A   Clear
7:55 PM 84.7 °F 87.6 °F 67.6 °F 56% 29.97 in 10.0 mi WSW 8.1 mph - N/A   Clear
8:55 PM 84.0 °F 87.0 °F 67.6 °F 58% 29.99 in 10.0 mi WSW 8.1 mph - N/A   Clear
9:55 PM 83.3 °F 85.7 °F 66.4 °F 57% 29.99 in 10.0 mi West 3.5 mph - N/A   Clear
10:55 PM 82.2 °F 84.7 °F 67.1 °F 60% 29.97 in 10.0 mi West 3.5 mph - N/A   Clear
11:55 PM 81.9 °F 85.0 °F 68.7 °F 64% 29.97 in 10.0 mi West 3.5 mph - N/A   Clear